Flag for Finland Weather past 2 weeks in Rovaniemi, Finland

34 °F

Broken clouds.

Feels Like: 25 °F
Forecast: 29 / 34 °F
Wind: 12 mph from South

Location: Rovaniemi Airport

Current Time: Nov 29, 2015 at 1:47:42 PM

Latest Report: Nov 29, 2015 at 1:20 PM

Visibility: N/A

Pressure: 29.18 "Hg

Humidity: 93%

Dew point: 32 °F

Location of RovaniemiLocation

Historic Weather in Rovaniemi — Graph


Rovaniemi temperature yesterday

Maximum temperature yesterday: 37 °F (at 12:20 AM)
Minimum temperature yesterday: 32 °F (at 8:20 PM)
Average temperature yesterday: 35 °F

Past Weeks' High & Low Weather Summary

High37 °F (Nov 28, 12:20 AM)100% (Nov 14, 12:20 PM)29.74 "Hg (Nov 14, 12:20 PM)
Low9 °F (Nov 22, 4:50 AM)74% (Nov 19, 6:20 PM)28.68 "Hg (Nov 27, 4:20 AM)
Average27 °F96%29.37 "Hg
* Reported Nov 14 12:20 PM — Nov 29 12:50 PM, Rovaniemi, Weather by CustomWeather, © 2015

Note: Actual official high and low records may vary slightly from our data, if they occured in-between our weather recording intervals... More about our weather records


Rovaniemi weather history for previous 24 hours

Time TempWeatherWind HumidityBarometerVisibility
12:50 PM
Sun, Nov 29
34 °FCloudy.12 mph100%29.18 "HgN/A
12:20 PM34 °FPartly sunny.10 mph100%29.18 "HgN/A
11:20 AM30 °FBroken clouds.13 mph100%29.18 "HgN/A
10:50 AM28 °FScattered clouds.13 mph100%29.18 "HgN/A
10:20 AM28 °FPassing clouds.14 mph100%29.15 "HgN/A
9:50 AM28 °FPassing clouds.15 mph100%29.15 "HgN/A
9:20 AM28 °FPartly cloudy.14 mph100%29.12 "HgN/A
8:50 AM30 °FPartly cloudy.15 mph100%29.12 "HgN/A
8:20 AM30 °FMostly cloudy.15 mph100%29.09 "HgN/A
7:50 AM30 °FPartly cloudy.17 mph100%29.09 "HgN/A
7:20 AM32 °FIce fog.13 mph100%29.06 "Hg2 mi
6:50 AM32 °FIce fog.9 mph100%29.06 "Hg1 mi
6:20 AM32 °FIce fog.10 mph100%29.06 "Hg1 mi
5:50 AM32 °FIce fog.8 mph100%29.03 "Hg0 mi
5:20 AM32 °FIce fog.9 mph100%29.03 "Hg0 mi
4:50 AM32 °FIce fog.6 mph100%29.00 "Hg1 mi
4:20 AM32 °FIce fog.6 mph100%29.00 "Hg1 mi
3:50 AM32 °FSnow. Dense fog.7 mph100%29.00 "Hg1 mi
3:20 AM32 °FSnow. Dense fog.7 mph100%29.00 "Hg1 mi
2:50 AM32 °FSnow. Dense fog.7 mph100%29.00 "Hg1 mi
2:20 AM32 °FLight snow. Dense fog.6 mph100%28.97 "Hg0 mi
1:50 AM32 °FIce fog.6 mph100%28.97 "Hg1 mi
1:20 AM32 °FLight snow. Dense fog.6 mph100%28.97 "Hg1 mi
12:50 AM32 °FLight snow. Dense fog.6 mph100%29.00 "Hg1 mi
12:20 AM32 °FSnow. Dense fog.5 mph100%29.00 "Hg1 mi
11:50 PM
Sat, Nov 28
32 °FSnow. Dense fog.5 mph100%29.00 "Hg1 mi
11:20 PM32 °FSnow. Dense fog.5 mph100%29.00 "Hg1 mi
10:20 PM32 °FFog.5 mph100%29.00 "Hg0 mi
9:50 PM32 °FLight snow. Dense fog.5 mph100%29.00 "Hg1 mi
9:20 PM32 °FLight snow. Dense fog.6 mph100%29.00 "Hg1 mi
8:50 PM32 °FLight snow. Dense fog.7 mph100%29.00 "Hg0 mi
8:20 PM32 °FLight snow. Dense fog.7 mph100%29.00 "Hg1 mi
7:50 PM34 °FLight rain. Fog.7 mph100%29.00 "Hg3 mi
7:20 PM34 °FFog.5 mph100%29.00 "Hg1 mi
6:50 PM34 °FLight rain. Mostly cloudy.5 mph100%29.00 "HgN/A
6:20 PM34 °FLight rain. Overcast.2 mph100%29.00 "HgN/A
5:50 PM34 °FLight rain. Passing clouds.3 mph100%29.00 "HgN/A
5:20 PM34 °FLight rain. Passing clouds.3 mph100%29.00 "HgN/A
4:50 PM36 °FLight rain. Overcast.3 mph100%29.00 "HgN/A
4:20 PM36 °FRain. Partly cloudy.6 mph100%29.00 "Hg5 mi
3:50 PM37 °FRain. Partly cloudy.9 mph100%29.00 "Hg4 mi
3:20 PM37 °FFog.8 mph100%29.00 "Hg0 mi
2:50 PM36 °FFog.8 mph100%29.00 "Hg0 mi
2:20 PM37 °FFog.8 mph100%29.00 "Hg2 mi
1:50 PM37 °FFog.10 mph100%29.00 "Hg1 mi
1:20 PM37 °FFog.10 mph100%29.00 "Hg2 mi
Weather by CustomWeather, © 2015

See weather overviewHow to use our weather pages